Regional Weather Roundup
Issued by NWS

Home | Current Version | Previous Version | Text Only | Print | Product List | Glossary On
Versions: 1 2 3 4 5 6 7 8 9 10 11 12 13 14 15 16 17 18 19 20 21 22 23 24 25 26 27 28 29 30 31 32 33 34 35 36 37 38 39 40 41 42 43 44 45 46 47 48 49 50
000
ASUS46 KLOX 020213
RWRCA

SOUTHERN CALIFORNIA WEATHER ROUNDUP
NATIONAL WEATHER SERVICE OXNARD CALIFORNIA
700 PM PDT TUE SEP 01 2015

NOTE: "FAIR" INDICATES FEW OR NO CLOUDS BELOW 12,000 FEET WITH NO
SIGNIFICANT WEATHER AND/OR OBSTRUCTIONS TO VISIBILITY.

  -  STATIONS PRECEEDED BY AN ASTERISK (*) ARE NOT NWS OR FAA
     STATIONS AND ARE NOT SUBJECT TO NWS AND FAA QUALITY CONTROL.

CAZ041-042-087-020300-
LA AND ORANGE COUNTY COASTAL AREAS


CITY           SKY/WX    TMP DP  RH WIND       PRES   REMARKS
L.A. DOWNTOWN  MOCLDY    72  61  68 W5        29.89S
L.A. AIRPORT   MOCLDY    70  63  78 W10       29.90R
LONG BEACH     PTCLDY    73  61  65 S8        29.89R

CITY           SKY/WX    TMP DP  RH WIND       PRES   REMARKS
AVALON           N/A     70 N/A N/A MISG        N/A
FULLERTON      MOCLDY    73  63  70 S8        29.88R
*GETTY CENTER    N/A     64  61  88 SW6         N/A
HAWTHORNE      PTCLDY    72  62  71 SW8       29.90R
*LEO CARRILLO    N/A     70  62  77 SW7         N/A
*LOS ALAMITOS  MOCLDY    71  64  78 S9        29.89S
*REDONDO BEACH   N/A     71  62  75 W3        29.90S
SANTA ANA      MOCLDY    71  61  70 SW8       29.90R
STA MONICA APT MOCLDY    71  63  75 SW7       29.90R
TORRANCE       PTCLDY    72  64  78 W12       29.90R
*UCLA            N/A     68  61  77 W8        29.88R

$$

CAZ547-548-048-020300-
LA COUNTY VALLEYS AND INLAND EMPIRE


CITY           SKY/WX    TMP DP  RH WIND       PRES   REMARKS
BURBANK        MOCLDY    72  61  68 S6        29.89R
VAN NUYS       CLOUDY    74  60  61 SE7       29.89R

CITY           SKY/WX    TMP DP  RH WIND       PRES   REMARKS
CORONA AIRPORT MOCLDY    73  60  63 W12       29.88R
*CHATSWORTH      N/A     76  59  56 E3        29.88R
CHINO          MOCLDY    75  61  61 W14       29.89R
MARCH AFB      MOCLDY    77  58  51 NW10      29.90R
*NORTHRIDGE      N/A     73  55  53 E3          N/A
ONTARIO        MOCLDY    75  60  59 W12       29.89R
*PASADENA        N/A     72  63  73 E3          N/A
POMONA         CLEAR     73  59  60 SW12      29.93R
RIVERSIDE      MOCLDY    76  60  57 W10       29.88R
SAN BERNARDINO NOT AVBL
*SAN GABRIEL     N/A     73  63  70 W8        29.95R
*SAN RAFAEL HI   N/A     66  54  66 E6          N/A
*SAUGUS          N/A     84  50  30 S14         N/A
*WHITEMAN AP   MOCLDY    75  59  57 SE7       29.93R
*WHITTIER HILL   N/A     70  62  75 S7          N/A
*WOODLAND HILL   N/A     75  55  50 S3          N/A

$$

CAZ054-055-020300-
LA AND SAN BERNARDINO COUNTY MOUNTAINS


CITY           SKY/WX    TMP DP  RH WIND       PRES   REMARKS
*BIG BEAR AIRP PTCLDY    66  37  34 W5        30.19R
*CHILAO          N/A     66  27  23 SE16        N/A
SANDBERG         N/A     70  46  42 S16G26    30.05R
*WARM SPRINGS    N/A     69  53  56 CALM        N/A

$$

CAZ028-029-059-060-099-020300-
ANTELOPE VALLEY AND SURROUNDING AREAS


CITY           SKY/WX    TMP DP  RH WIND       PRES   REMARKS
LANCASTER      PTCLDY    82  35  18 SW15      29.90R
PALMDALE       PTCLDY    82  38  20 SW21      29.91R
*POPPY PARK      N/A     79  44  28 W7G35       N/A

CITY           SKY/WX    TMP DP  RH WIND       PRES   REMARKS
29 PALMS       MOCLDY    90  57  32 S16       29.91R
BARSTOW/DAGGET PTCLDY   N/A N/A N/A SW13      29.81S
BISHOP         CLEAR     85  23  10 SE20G28   29.88S
CHINA LAKE     MOCLDY    92  24   8 SW12      29.83S
EDWARDS AFB    MOCLDY    85  31  14 W16       29.86R
MOJAVE         CLEAR     84  27  12 SW17G24   29.91S
NEEDLES        PTCLDY   101  49  17 SW9       29.77R HX  98
VICTORVILLE    PTCLDY    82  32  16 S17G23    29.92R

$$

CAZ039-040-020300-
VENTURA AND SANTA BARBARA COUNTY COAST


CITY           SKY/WX    TMP DP  RH WIND       PRES   REMARKS
CAMARILLO      CLOUDY    73  62  68 W7        29.88S
NWS OXNARD       N/A     71  62  73 CALM      29.88S
OXNARD AIRPORT CLOUDY    70  63  78 W10       29.88S
*POINT MUGU    CLOUDY    72  64  76 W7        29.89R
SBA APT/GOLETA CLOUDY    72  61  68 W7        29.87S
*SANTA BARBARA   N/A     73  61  66 CALM      29.95S
*VENTURA         N/A     71  61  71 CALM      29.50S

$$

CAZ044-045-020300-
VENTURA COUNTY VALLEYS


CITY           SKY/WX    TMP DP  RH WIND       PRES   REMARKS
*SIMI VALLEY     N/A     71  62  72 CALM      29.85S
*OJAI            N/A     72  60  66 CALM      29.83R
*FILLMORE        N/A     74  62  67 SW2       29.79S

$$

CAZ053-020300-
VENTURA COUNTY MOUNTAINS


CITY           SKY/WX    TMP DP  RH WIND       PRES   REMARKS
*LOCKWOOD VLY    N/A     70  30  23 S1          N/A
*ROSE VALLEY     N/A     72  57  60 MISG        N/A

$$

CAZ034-035-036-020300-
CENTRAL COAST AND SANTA YNEZ VALLEY


CITY           SKY/WX    TMP DP  RH WIND       PRES   REMARKS
SAN LUIS OBISP PTCLDY    67  56  67 NW10      29.90S
SANTA MARIA    MOCLDY    66  57  72 W10       29.91S

CITY           SKY/WX    TMP DP  RH WIND       PRES   REMARKS
*CAL POLY SLO    N/A     68  59  73 W6          N/A
*LOMPOC        PTCLDY    66  55  68 W9        29.92R
*PISMO BEACH     N/A     63  59  87 W5        29.91S
*SANTA YNEZ    FAIR      70  54  56 W10       29.90R

$$

CAZ037-038-051-020300-
SAN LUIS OBISPO COUNTY INTERIOR AND CUYAMA VALLEY


CITY           SKY/WX    TMP DP  RH WIND       PRES   REMARKS
*CUYAMA          N/A     74  54  48 W9        29.79R
PASO ROBLES    CLEAR     70  54  56 SW18      29.87S

$$

CAZ032-033-061-020300-
SOUTHERN DESERTS


CITY           SKY/WX    TMP DP  RH WIND       PRES   REMARKS
BLYTHE         PTCLDY   100  57  23 SW14      29.73S HX  99
IMPERIAL       CLEAR    100  54  21 SE17      29.71R HX  98
PALM SPRINGS   MOCLDY    99  44  15 NW13G23   29.77R HX  95
THERMAL        MOCLDY    95  63  34 NW3       29.70R HX  96

$$

ELSEWHERE ACROSS THE WESTERN UNITED STATES AND MEXICO


CITY           SKY/WX    TMP DP  RH WIND       PRES   REMARKS
DENVER, CO     MOCLDY    71  49  45 SE10      30.07S
GRAND CANYON,  MOCLDY    66  53  63 E6        30.23R
HONOLULU, HI   PTSUNNY   90  73  58 SE7       29.77S HX  98
KAHULUI, MAUI  MOSUNNY   90  73  58 S12       29.76F HX  98
LAKE TAHOE, CA CLEAR     71  36  27 S13G20    30.09R
LAS VEGAS, NV  PTCLDY    95  49  20 SW10      29.78S HX  92
MAMMOTH LAKES, FAIR      72  25  17 W8        30.14R
MEXICO CITY, M CLOUDY    68  55  64 E6        30.32R
PHOENIX, AZ    MOCLDY    97  59  28 E5        29.80S HX  96
PORTLAND, OR   CLOUDY    70  56  61 W13       29.82S
RENO, NV       PTCLDY    83  31  15 W20G29    29.91R
SALT LAKE CITY MOCLDY    86  39  19 S6        29.87F
SAN DIEGO, CA  CLOUDY    70  61  73 W6        29.93R
SAN FRANCISCO, PTCLDY    65  56  72 SW10G22   29.89R
SAN JOSE, CA   PTCLDY    71  56  58 NW16      29.86R
SEATTLE, WA    CLOUDY    58  56  93 S12       29.80S
TIJUANA, MEX   MOCLDY    68  57  68 W9        29.95R

$$

STATION/POSITION TIME  TEMP    WIND        PRES    VSBY  WAVE
                       AIR SEA DIR/SP/G                  HT/PER
                 (UTC) (F)     (DEG/KT/KT) (MB)    (MI)  (FT/S)
POINT ARGUELLO B NOT AVBL
WEST SANTA BARBA 0150   65 69  320/ 16/ 19 1011.3R         7/11
POINT CONCEPTION NOT AVBL
EAST SANTA BARBA 0200   67 67  270/ 10/ 14 1012.5R
SANTA MONICA BAY 0150   69 71  230/  6/  8 1012.3R         4/13



USA.gov is the U.S. government's official web portal to all federal, state and local government web resources and services.